Wind_Speed
5 4 3 2 2 4 5 6 7 10 12 12 11 11 10 9 7 7 7 8 9 9 9 8 8 9 10 11 11 11 12 12 13 13 14 13 13 13 13 13 14 14 15 16 16 17 17 17 16
6 4 2 1 1 1 3 4 6 8 9 10 10 10 10 10 8 7 7 8 9 8 7 7 8 9 10 10 10 10 10 11 11 11 11 11 11 11 11 11 11 12 13 13 14 14 14 14 14
9 7 4 2 2 1 3 4 6 6 6 7 7 7 8 8 8 7 7 7 7 6 6 6 7 8 9 9 9 9 9 10 10 9 9 9 9 9 9 9 9 10 10 11 11 12 12 12 12
11 10 8 5 2 2 4 6 6 4 3 4 5 6 7 8 9 9 9 9 8 8 7 7 8 8 8 8 8 8 8 8 8 8 8 8 8 8 8 8 8 8 9 9 9 10 10 10 10
12 11 9 7 5 4 4 5 5 4 3 3 3 5 7 8 10 10 11 10 10 9 9 9 9 9 9 8 8 8 7 7 7 7 7 8 8 8 8 9 9 9 9 9 9 9 9 9 9
15 13 11 10 8 7 6 4 3 3 0 2 3 4 6 7 8 9 9 9 9 9 9 10 10 10 10 9 9 8 7 7 7 8 8 9 9 10 10 10 10 10 10 10 9 9 9 10 10
18 16 14 12 11 10 8 6 5 3 1 1 3 4 5 6 6 7 7 7 8 9 9 10 10 10 10 10 10 9 8 8 9 9 9 10 12 12 13 13 13 13 13 12 13 13 12 12 12
20 18 16 14 13 12 10 9 7 5 1 1 2 4 5 6 6 7 8 8 9 9 9 10 10 10 11 11 11 11 11 11 12 12 13 14 15 16 16 17 17 17 17 17 17 17 17 16 15
22 20 18 16 14 13 11 11 9 6 3 2 1 3 5 6 8 10 11 12 13 13 13 13 13 13 13 14 14 15 15 15 16 17 17 18 18 19 20 20 21 21 21 21 21 21 20 19 18
24 23 20 17 15 13 11 11 10 7 6 5 5 5 7 9 11 14 15 16 16 17 17 17 17 18 18 18 19 20 20 21 21 22 22 23 23 23 24 25 25 25 25 25 25 24 24 23 22
25 25 24 21 18 15 13 12 11 11 11 11 11 12 13 14 16 18 19 19 19 20 20 21 21 22 23 23 24 25 25 26 26 27 27 27 28 28 29 30 30 30 29 29 29 29 28 27 26
25 27 26 23 20 19 17 16 15 15 16 17 17 18 19 20 21 22 23 23 23 23 24 24 25 26 27 28 29 30 30 30 31 32 32 32 32 33 33 34 34 34 34 34 34 34 33 32 31
24 27 26 24 24 23 22 21 20 19 21 22 23 24 25 26 26 26 26 26 25 26 26 27 28 29 30 32 33 34 34 34 35 35 36 36 36 36 37 37 37 38 38 38 38 39 38 37 35
25 24 26 27 28 27 26 26 25 24 26 27 28 29 30 30 30 29 28 27 28 28 29 29 29 29 30 32 33 35 36 37 37 37 39 39 39 39 39 39 38 39 40 40 40 41 41 40 38
29 27 28 30 31 30 29 29 29 29 31 32 33 33 34 33 32 31 30 29 30 30 31 31 30 30 31 32 33 34 35 36 37 38 39 40 40 40 40 39 39 40 40 40 40 40 40 39 38
33 33 33 34 33 32 32 32 33 34 35 35 35 35 35 35 34 32 30 30 31 31 32 32 32 32 32 32 33 33 34 35 36 37 38 39 39 40 40 40 40 40 41 41 41 42 40 40 38
36 36 37 37 36 36 36 36 36 37 37 37 37 36 35 34 32 30 30 31 31 33 34 35 35 34 34 34 34 34 34 35 35 36 37 38 39 40 41 41 41 42 43 43 43 43 42 42 40
34 36 37 38 38 38 38 38 38 38 38 37 36 35 33 30 29 30 32 33 34 35 36 37 36 35 35 34 34 34 35 36 36 37 38 38 39 40 41 42 42 43 43 43 44 44 44 43 41
29 31 33 35 36 37 38 38 37 37 36 35 34 31 30 29 30 32 34 35 36 36 36 36 35 34 34 34 35 35 36 36 37 37 38 38 39 40 41 42 42 43 43 43 43 43 43 42 41
26 29 31 33 33 34 35 35 34 34 34 33 31 30 30 31 33 35 35 35 35 35 35 34 33 32 34 35 35 36 36 37 38 39 39 39 39 39 40 41 41 41 40 40 40 40 40 39 39
24 26 29 30 31 31 32 32 32 33 33 32 32 32 33 35 36 36 34 32 31 32 33 32 32 33 34 34 34 34 35 36 37 38 39 40 40 40 40 40 40 40 39 38 37 37 37 36 36
22 24 26 27 27 27 29 30 31 32 33 34 34 34 35 35 34 32 30 28 29 30 31 31 32 32 31 31 31 31 32 33 35 37 38 39 40 41 41 41 41 41 41 40 38 37 36 35 34
20 22 23 24 24 25 27 29 29 30 31 32 32 31 30 28 27 25 24 25 27 28 29 30 30 29 28 26 26 27 29 31 33 35 37 38 39 40 40 41 42 42 42 42 41 39 38 37 36
16 17 18 19 19 20 22 23 23 23 23 23 23 22 22 22 22 22 23 24 26 27 28 28 27 26 24 24 24 26 28 30 32 34 35 36 38 38 39 40 41 42 43 43 43 42 41 40 39
12 13 14 14 14 16 17 18 17 18 20 20 19 20 21 22 22 22 23 23 24 25 26 25 25 25 25 26 27 29 30 32 32 34 35 36 36 37 38 38 39 41 42 43 44 43 42 41 41
12 13 13 14 14 14 16 17 16 18 18 19 20 21 22 22 22 22 23 23 24 25 25 26 27 29 30 31 32 33 34 35 35 35 36 37 37 37 37 37 37 38 40 41 43 43 43 42 42
13 13 14 14 14 14 15 16 18 18 18 19 20 20 21 21 21 22 24 25 27 28 29 30 31 33 34 36 36 37 37 38 37 37 37 38 38 38 37 36 36 36 37 38 39 40 41 41 41
12 13 14 15 16 16 16 18 20 20 21 22 22 22 23 24 25 26 28 29 31 33 34 35 36 37 38 39 39 39 39 39 39 38 38 39 39 39 37 36 35 34 34 34 35 36 37 38 38
12 13 14 16 18 20 20 20 20 22 24 26 27 28 28 29 30 31 33 34 36 38 39 40 40 40 40 41 40 40 41 41 40 40 39 39 39 39 37 36 34 32 32 31 31 32 33 34 35
14 16 18 20 21 23 25 27 25 26 28 30 31 32 33 34 35 36 38 40 42 43 44 45 45 45 45 45 44 43 42 42 41 40 39 39 39 38 37 36 34 32 30 29 28 28 28 29 29
Wind_Direction
169 147 123 74 23 32 37 47 74 79 74 78 80 79 78 79 87 88 85 81 71 61 54 45 40 38 39 40 40 38 35 32 32 33 33 34 33 31 28 26 26 26 28 30 32 34 35 35 36
195 185 173 227 289 51 45 60 72 68 64 62 58 56 62 64 67 74 76 76 68 58 47 38 32 29 30 31 31 30 27 24 23 24 25 26 26 25 23 22 20 19 18 19 20 23 26 27 29
214 212 216 251 274 182 130 114 99 76 62 54 41 31 34 37 31 31 40 44 43 34 25 20 17 16 18 18 19 18 16 13 13 13 13 13 13 14 15 15 14 11 8 5 5 7 10 12 14
228 225 228 239 239 192 166 146 135 125 88 53 30 7 5 8 3 358 359 4 3 357 354 354 357 357 359 2 5 6 5 2 1 1 1 358 356 355 357 360 1 359 354 350 348 348 350 352 355
234 233 229 229 230 222 214 177 157 153 116 56 23 5 356 354 347 344 346 348 345 339 340 345 349 349 350 352 354 354 351 348 348 347 345 342 341 340 340 340 341 340 337 334 332 331 331 333 335
235 235 230 228 231 234 236 226 215 196 96 25 14 4 357 353 347 345 346 343 336 332 335 342 346 346 345 344 343 341 339 335 332 331 330 329 327 326 327 326 325 324 322 318 316 315 315 317 318
232 235 231 232 234 240 247 251 266 275 280 323 352 349 347 350 351 348 349 346 341 339 341 342 340 339 337 334 331 327 324 320 317 316 315 315 314 314 314 314 313 312 310 308 306 303 300 299 301
233 236 233 232 237 246 255 265 281 292 286 259 344 343 340 343 342 338 338 338 336 335 334 333 331 327 324 321 317 313 311 308 306 305 304 304 304 304 303 304 303 303 303 302 301 299 297 293 291
232 236 237 237 242 251 264 279 287 280 251 222 283 334 337 330 326 322 320 319 317 314 311 309 308 307 306 304 303 301 300 300 300 299 298 297 297 297 296 295 295 295 295 295 295 294 293 290 287
227 233 237 240 243 252 267 284 289 276 265 267 276 290 307 313 312 311 309 307 304 301 298 295 293 292 292 292 293 293 293 293 293 293 292 292 292 291 291 290 289 289 288 288 287 287 286 285 283
225 230 238 242 245 251 264 276 279 282 285 287 292 296 301 305 305 303 302 301 300 297 295 292 289 287 286 286 286 287 288 288 288 288 288 287 287 286 286 286 285 284 282 281 280 279 278 278 277
226 230 238 244 247 250 257 266 273 281 285 290 295 299 301 300 299 298 297 297 296 295 293 291 288 287 286 285 284 284 284 284 284 284 284 283 283 282 282 282 281 280 278 276 274 272 270 270 270
230 231 239 246 251 252 256 262 269 277 284 290 293 295 295 296 295 294 295 295 295 295 294 292 290 288 286 285 285 284 283 283 283 282 282 281 280 279 278 276 276 275 273 272 271 270 269 268 267
236 235 237 242 247 251 256 262 269 275 280 283 286 287 289 290 290 292 293 294 295 296 295 294 292 290 288 286 285 284 284 284 283 282 279 278 277 276 275 275 274 274 274 275 275 274 274 272 268
239 239 240 242 245 250 256 262 268 273 276 279 281 283 285 287 288 290 292 295 297 297 296 295 293 291 290 288 287 286 285 285 283 282 280 278 278 277 275 275 274 275 276 275 277 278 279 276 275
238 241 244 247 250 253 258 261 266 270 273 276 278 280 282 284 287 291 295 298 300 299 298 297 296 295 294 293 291 290 288 287 285 284 282 282 281 279 278 277 276 276 276 277 277 279 278 279 280
238 242 246 251 254 257 259 262 265 269 271 274 276 277 279 281 285 291 297 299 300 300 300 299 298 298 298 298 296 295 294 292 290 287 284 282 281 280 279 277 276 275 275 276 277 279 279 280 281
240 244 249 253 257 259 262 263 265 267 269 271 272 273 276 279 285 292 297 298 298 299 298 298 298 299 299 300 300 299 298 296 294 291 289 286 283 281 280 278 276 275 275 274 275 277 278 278 279
240 245 248 252 255 258 260 262 264 265 266 267 269 272 276 280 285 291 294 296 297 297 297 296 297 300 302 304 305 305 303 301 298 296 293 290 287 284 282 280 278 277 276 275 274 275 275 276 276
241 245 248 251 252 254 256 258 261 263 265 268 271 274 277 281 285 289 292 293 294 295 296 297 299 303 305 306 307 306 305 303 301 299 296 292 288 285 282 281 279 279 278 276 275 274 273 273 273
245 247 249 251 252 253 254 255 259 263 267 270 273 275 278 282 286 288 288 288 289 291 295 298 302 305 306 307 306 307 306 306 304 302 299 295 290 286 282 279 278 277 276 275 274 274 273 271 270
253 255 256 257 258 257 259 259 258 262 267 271 273 276 279 281 284 284 283 282 286 290 293 297 302 304 305 307 308 310 311 311 310 308 304 299 294 289 283 280 277 275 274 273 273 272 272 270 269
260 263 265 266 266 265 263 264 265 265 266 269 272 275 277 277 277 276 276 280 286 289 292 295 298 299 302 306 310 314 316 316 316 314 311 306 300 295 288 282 278 275 273 272 272 272 271 270 269
269 272 273 274 273 270 270 271 271 271 272 273 274 274 272 270 271 273 277 281 284 285 287 290 291 294 300 305 312 316 318 319 320 320 317 312 306 300 295 288 281 277 274 272 271 270 270 270 270
278 281 283 283 281 277 278 280 280 275 273 271 270 270 270 271 273 275 277 278 279 280 281 283 287 293 301 307 312 315 316 318 320 321 321 318 312 306 300 293 286 280 276 272 271 270 269 269 269
280 285 288 289 288 284 285 285 284 278 276 275 274 274 275 276 276 274 271 272 274 277 280 285 293 300 306 310 313 315 316 317 318 320 321 320 317 312 305 297 290 285 280 275 271 270 268 268 268
280 282 288 289 289 284 283 284 281 283 283 283 282 282 281 278 276 274 274 276 280 284 289 294 299 303 306 309 311 312 313 314 316 317 319 320 319 317 311 304 297 290 284 278 273 270 268 267 266
290 288 287 288 291 289 284 280 280 284 288 290 290 290 288 285 283 281 283 286 289 293 296 299 302 304 305 306 307 308 309 310 313 315 316 318 319 318 315 310 304 297 291 284 278 272 268 266 265
299 294 293 293 294 296 294 288 290 291 293 292 291 290 288 287 287 287 290 292 294 296 299 300 301 302 303 303 304 305 306 308 310 311 314 315 317 318 316 313 308 302 297 291 284 275 270 267 265
306 303 301 298 299 299 300 298 297 295 292 291 290 289 288 287 288 290 292 294 295 297 298 299 300 301 301 302 303 303 304 305 307 308 310 312 315 317 316 314 311 307 303 297 290 281 275 270 266
Height
5917 5918 5919 5920 5920 5919 5917 5917 5916 5916 5917 5918 5918 5918 5918 5919 5920 5922 5920 5918 5918 5918 5918 5917 5917 5916 5914 5913 5913 5912 5912 5911 5911 5910 5910 5909 5909 5908 5908 5907 5906 5905 5904 5904 5903 5902 5901 5900 5899
5918 5919 5921 5921 5921 5920 5920 5919 5919 5918 5919 5918 5918 5919 5919 5920 5920 5920 5919 5918 5918 5918 5918 5917 5916 5915 5914 5913 5913 5912 5912 5911 5911 5910 5910 5909 5909 5908 5908 5907 5906 5905 5904 5904 5903 5902 5901 5900 5899
5918 5919 5921 5921 5921 5921 5922 5921 5920 5920 5920 5920 5920 5920 5920 5921 5921 5921 5920 5919 5919 5919 5918 5917 5916 5915 5914 5913 5913 5912 5912 5911 5911 5910 5910 5909 5908 5908 5907 5906 5905 5905 5904 5903 5902 5902 5901 5900 5899
5918 5920 5921 5922 5921 5922 5922 5922 5922 5921 5921 5921 5921 5921 5921 5921 5921 5921 5920 5919 5919 5919 5918 5917 5916 5915 5914 5913 5913 5912 5911 5911 5910 5910 5909 5908 5908 5907 5906 5905 5904 5904 5903 5902 5901 5900 5900 5899 5898
5917 5919 5920 5921 5921 5922 5922 5922 5922 5922 5922 5922 5922 5921 5921 5921 5921 5920 5919 5919 5919 5919 5918 5916 5915 5914 5913 5913 5912 5911 5911 5910 5909 5909 5908 5907 5906 5906 5905 5904 5903 5902 5901 5900 5899 5899 5898 5897 5896
5916 5917 5919 5919 5920 5921 5922 5922 5922 5922 5922 5922 5922 5922 5921 5921 5921 5920 5919 5919 5919 5918 5917 5915 5914 5914 5913 5912 5911 5911 5910 5909 5909 5908 5907 5906 5905 5904 5903 5902 5902 5900 5899 5898 5897 5896 5895 5894 5893
5914 5915 5917 5918 5919 5920 5921 5921 5922 5922 5921 5921 5921 5921 5921 5921 5921 5920 5919 5918 5918 5917 5915 5914 5914 5913 5912 5911 5911 5910 5909 5908 5908 5907 5906 5905 5904 5903 5902 5901 5900 5899 5898 5897 5895 5894 5893 5892 5891
5911 5914 5915 5916 5917 5919 5920 5920 5920 5921 5921 5921 5921 5921 5921 5921 5920 5919 5918 5917 5916 5915 5914 5913 5912 5911 5910 5910 5909 5908 5908 5907 5906 5905 5904 5903 5902 5901 5900 5899 5898 5897 5896 5894 5893 5892 5891 5890 5888
5909 5912 5913 5915 5916 5917 5918 5918 5918 5919 5919 5920 5920 5920 5920 5920 5919 5918 5917 5916 5914 5913 5912 5911 5910 5909 5908 5907 5906 5906 5905 5905 5904 5903 5902 5901 5900 5898 5897 5896 5895 5893 5892 5891 5890 5889 5887 5886 5885
5906 5908 5910 5913 5914 5915 5915 5915 5915 5916 5917 5918 5919 5919 5919 5919 5918 5917 5916 5914 5912 5911 5909 5908 5907 5906 5905 5904 5903 5902 5902 5901 5900 5899 5898 5897 5896 5894 5893 5891 5890 5889 5888 5887 5886 5885 5883 5882 5881
5904 5905 5907 5910 5911 5912 5912 5913 5913 5914 5915 5916 5917 5917 5917 5917 5916 5914 5913 5911 5909 5908 5906 5904 5903 5902 5900 5900 5899 5898 5897 5896 5895 5894 5893 5892 5891 5889 5888 5886 5885 5883 5882 5881 5880 5879 5878 5876 5875
5902 5903 5904 5907 5909 5909 5910 5910 5911 5911 5912 5913 5914 5914 5914 5914 5913 5911 5909 5908 5906 5904 5902 5900 5898 5897 5896 5894 5893 5892 5892 5890 5889 5888 5887 5885 5884 5883 5881 5880 5878 5877 5875 5874 5873 5871 5870 5869 5868
5900 5901 5903 5905 5905 5906 5907 5907 5908 5908 5908 5909 5910 5910 5910 5909 5908 5907 5905 5903 5901 5899 5897 5895 5893 5892 5890 5888 5887 5886 5885 5884 5882 5881 5879 5878 5877 5875 5873 5872 5870 5869 5867 5866 5864 5863 5862 5861 5861
5897 5899 5900 5901 5901 5902 5903 5903 5904 5905 5904 5904 5905 5905 5904 5904 5903 5901 5899 5897 5895 5893 5891 5889 5887 5885 5884 5882 5880 5878 5877 5876 5874 5872 5870 5868 5867 5866 5864 5863 5862 5860 5859 5857 5856 5855 5854 5853 5852
5892 5894 5895 5895 5896 5897 5899 5900 5900 5900 5900 5899 5899 5898 5898 5897 5895 5894 5892 5891 5888 5886 5884 5882 5880 5878 5877 5875 5873 5871 5869 5868 5866 5864 5862 5859 5857 5856 5855 5854 5853 5852 5850 5849 5848 5846 5846 5845 5845
5886 5888 5889 5889 5891 5893 5896 5896 5896 5895 5894 5893 5893 5892 5891 5889 5888 5886 5885 5883 5881 5879 5877 5875 5873 5871 5869 5868 5866 5864 5862 5860 5858 5856 5854 5851 5849 5848 5846 5845 5845 5844 5842 5842 5840 5839 5838 5837 5837
5880 5882 5883 5884 5886 5888 5889 5890 5890 5889 5888 5888 5887 5886 5884 5883 5881 5880 5878 5876 5874 5872 5870 5867 5866 5864 5862 5860 5858 5856 5854 5852 5850 5848 5846 5844 5841 5839 5838 5837 5837 5835 5834 5833 5832 5830 5830 5830 5829
5874 5876 5877 5879 5879 5880 5881 5882 5882 5882 5882 5881 5880 5879 5878 5877 5876 5874 5872 5870 5868 5866 5863 5861 5859 5857 5855 5853 5850 5848 5846 5844 5841 5839 5837 5835 5833 5830 5829 5828 5827 5825 5825 5824 5823 5822 5821 5821 5820
5868 5870 5871 5872 5873 5873 5873 5874 5874 5875 5875 5874 5874 5873 5873 5872 5870 5869 5866 5864 5862 5860 5857 5855 5853 5850 5848 5845 5842 5840 5837 5835 5832 5830 5828 5825 5823 5821 5819 5818 5816 5815 5815 5814 5813 5812 5811 5811 5810
5864 5865 5866 5866 5867 5867 5867 5867 5867 5867 5867 5867 5868 5867 5866 5865 5864 5863 5860 5858 5856 5853 5851 5848 5846 5844 5841 5838 5835 5833 5830 5827 5824 5821 5818 5816 5814 5811 5809 5808 5806 5805 5804 5804 5803 5802 5801 5801 5800
5860 5861 5861 5862 5862 5862 5863 5863 5862 5862 5861 5861 5861 5861 5860 5859 5858 5856 5855 5852 5850 5847 5845 5842 5840 5837 5834 5832 5829 5826 5823 5819 5816 5812 5809 5806 5803 5801 5799 5797 5796 5795 5794 5793 5793 5792 5791 5791 5791
5857 5857 5857 5857 5858 5858 5859 5858 5859 5857 5857 5856 5855 5855 5855 5854 5852 5851 5849 5847 5844 5842 5839 5836 5834 5831 5828 5826 5823 5819 5816 5812 5808 5804 5800 5796 5792 5790 5788 5786 5785 5784 5783 5782 5782 5781 5781 5781 5781
5854 5854 5853 5853 5853 5853 5852 5853 5853 5853 5852 5852 5851 5850 5849 5848 5847 5845 5842 5841 5839 5836 5833 5831 5828 5826 5823 5820 5817 5814 5810 5806 5802 5797 5792 5787 5783 5779 5776 5775 5773 5772 5771 5770 5770 5770 5770 5770 5770
5851 5851 5850 5849 5849 5848 5847 5848 5848 5847 5847 5847 5846 5845 5844 5843 5841 5839 5837 5835 5833 5830 5828 5825 5823 5820 5818 5815 5811 5807 5804 5800 5795 5790 5785 5779 5774 5769 5766 5763 5761 5760 5758 5758 5758 5758 5758 5758 5758
5849 5849 5848 5846 5845 5845 5844 5844 5845 5843 5842 5842 5841 5840 5839 5837 5836 5834 5832 5829 5827 5824 5822 5819 5817 5814 5811 5807 5804 5800 5796 5792 5788 5783 5778 5772 5767 5762 5757 5753 5750 5748 5746 5745 5745 5745 5746 5746 5747
5847 5847 5846 5845 5843 5842 5841 5841 5841 5839 5838 5837 5836 5835 5833 5831 5830 5827 5825 5822 5820 5817 5815 5812 5809 5805 5801 5798 5795 5791 5788 5784 5779 5775 5770 5765 5759 5754 5749 5744 5740 5737 5734 5733 5732 5732 5733 5734 5734
5844 5844 5843 5842 5840 5839 5838 5837 5836 5834 5833 5832 5830 5828 5827 5825 5823 5820 5817 5814 5811 5809 5805 5802 5799 5795 5792 5788 5785 5782 5779 5775 5771 5767 5762 5757 5751 5745 5740 5735 5731 5727 5724 5722 5720 5720 5721 5721 5722
5842 5841 5840 5838 5836 5835 5835 5832 5831 5830 5828 5826 5824 5822 5820 5817 5814 5811 5808 5805 5801 5798 5795 5792 5788 5785 5782 5779 5776 5773 5769 5766 5762 5758 5754 5749 5743 5737 5731 5726 5722 5718 5714 5711 5710 5709 5709 5709 5710
5839 5838 5836 5835 5833 5831 5829 5829 5827 5825 5822 5820 5817 5814 5811 5808 5804 5801 5797 5794 5791 5788 5784 5781 5778 5775 5772 5769 5766 5763 5759 5756 5753 5750 5746 5741 5735 5730 5724 5719 5714 5710 5706 5703 5700 5699 5698 5698 5698
5836 5835 5833 5831 5829 5826 5824 5824 5820 5818 5815 5812 5809 5805 5801 5798 5794 5790 5787 5783 5780 5777 5774 5770 5767 5765 5762 5759 5756 5753 5750 5747 5744 5741 5737 5733 5728 5722 5717 5712 5707 5702 5698 5695 5692 5690 5689 5689 5689